www.pogodaiklimat.ru

Погода и климат >> Архив погоды >> Италия >> Ольвия


ПОГОДА в Ольвии

  • Прогноз погоды в Ольвии
  • Монитор погоды в Ольвии

АРХИВ ПОГОДЫ в Ольвии

Время (UTC), дата Ветер
(напр.,м/с)
 
Видим.   Явления Облачность Т
(С)
Тd
(С)
f
(%)
Тe
(С)
Тes
(С)
Комфортность P
(гПа)
Po
(гПа)
Тmin
(С)
Tmax
(С)
R
(мм)
R24
(мм)
S
(см)
12 9.06 В 5 20 км 5/5 1200 м
[Cu hum]
+30.6 +16.5 43 +34 +39 очень
душно
1015.6 1014.2
15 9.06 В 3 20 км ясно +29.9 +17.9 49 +34 +42 очень
душно
1014.0 1012.7
18 9.06 СВ 3 20 км ясно +24.8 +18.8 69 +30 +30 душно 1014.0 1012.7 +32.8
21 9.06 СВ 2 20 км 9/0
[Ci fib]
+21.5 +18.7 84 +26 +26 душно 1013.8 1012.4
00 10.06 ЮВ 2 20 км 9/0
[Ci fib]
+20.8 +19.2 91 +26 +26 душно 1013.3 1012.0
03 10.06 нст 2 20 км 9/0
[Ac cuf Ci fib]
+21.3 +19.2 88 +26 +26 душно 1011.6 1010.3
06 10.06 штиль 0 18 км {гроза, дождь} 8/8 900 м
[Cb calv As trans]
+21.6 +19.3 87 +27 +27 душно 1011.2 1009.8 +20.1
09 10.06 15 км 9/0
[Ci fib]
+28.1 +18.9 57 1009.7 1008.3
12 10.06 С 5 10 км ясно +30.0 +20.3 56 +37 +47 очень
душно
1008.2 1006.9
15 10.06 В 6 19 км ясно +25.8 +19.1 67 +31 +35 очень
душно
1008.9 1007.5
18 10.06 СВ 2 21 км ясно +23.9 +19.4 76 +29 +29 душно 1008.8 1007.5 +31.8
21 10.06 З 2 20 км 5/1 600 м
[Cu hum Ci fib]
+20.8 +18.8 88 +26 +26 душно 1010.4 1009.0
00 11.06 ЮЗ 6 20 км ясно +21.1 +17.3 79 +25 +25 комфорт 1009.9 1008.6
03 11.06 ЮЗ 3 20 км ясно +19.7 +16.7 83 +22 +22 комфорт 1009.5 1008.2
06 11.06 СЗ 1 19 км ясно +21.1 +16.4 75 +25 +28 комфорт 1009.9 1008.5 +19.6
09 11.06 В 5 19 км ясно +24.4 +17.8 67 +29 +36 душно 1010.0 1008.6
12 11.06 СВ 5 20 км ясно +25.3 +18.5 66 +30 +41 душно 1009.2 1007.9
15 11.06 СВ 5 20 км 5/0
[Ci fib]
+24.2 +18.2 69 +29 +34 душно 1008.9 1007.5
18 11.06 В 3 20 км 5/0
[Ci fib]
+22.5 +18.1 76 +28 +28 душно 1009.2 1007.9 +26.3
21 11.06 З 2 19 км ясно +19.7 +18.3 92 +23 +23 комфорт 1009.4 1008.0
00 12.06 13 км ясно +18.6 +17.6 94 1009.7 1008.4
03 12.06 ЮЗ 3 19 км ясно +20.0 +17.2 84 +23 +23 комфорт 1010.0 1008.7
06 12.06 ЮЗ 7 20 км ясно +21.4 +14.6 65 +24 +25 комфорт 1011.1 1009.7 +18.0
09 12.06 З 4 20 км ясно +27.2 +12.6 40 +29 +39 жарко 1011.4 1010.1
12 12.06 СЗ 5 20 км ясно +28.6 +13.6 40 +30 +41 жарко 1011.9 1010.5
15 12.06 СЗ 7 н/о н/о +27.5 +13.4 42 +29 +29 жарко 1012.5 1011.2
18 12.06 СЗ 5 н/о н/о +23.6 +12.5 50 +26 +26 жарко 1013.8 1012.5 +29.6
21 12.06 ЮЗ 2 20 км ясно +18.1 +13.3 74 +19 +19 1015.0 1013.7
00 13.06 12 км ясно +17.9 +12.0 68 1014.8 1013.5
03 13.06 20 км ясно +14.2 +12.0 87 1014.8 1013.5
06 13.06 30 км ясно +18.8 +12.7 68 1016.0 1014.7 +13.3
09 13.06 СВ 3 20 км ясно +24.6 +15.5 57 +28 +40 душно 1016.3 1014.9
12 13.06 СВ 6 15 км ясно +25.4 +14.4 51 +28 +35 жарко 1016.1 1014.7
15 13.06 СВ 7 15 км ясно +24.9 +16.3 59 +28 +31 жарко 1015.4 1014.1
18 13.06 В 5 15 км ясно +23.0 +17.2 70 +28 +28 душно 1015.1 1013.7 +26.7
21 13.06 СВ 3 20 км ясно +20.1 +18.2 89 +24 +24 комфорт 1016.1 1014.8
00 14.06 н/о н/о +16.0 +15.5 97 1015.4 1014.1
03 14.06 н/о н/о +14.4 +14.1 98 1014.2 1012.8
06 14.06 15 км ясно +19.8 +18.5 92 1013.9 1012.6 +14.2
09 14.06 В 6 15 км 1/1 1500 м
[Cu hum]
+27.4 +20.1 64 +34 +40 очень
душно
1013.0 1011.7
12 14.06 СВ 2 12 км 10/3 450 м
[Cu med, cong As op Ci sp]
+27.7 +20.6 65 +34 +41 очень
душно
1012.8 1011.4
15 14.06 В 2 12 км 10/3 450 м
[Cu med, cong As op Ci sp]
+26.2 +20.4 70 +32 +36 очень
душно
1012.0 1010.6
18 14.06 В 3 15 км ясно +26.7 +19.9 66 +33 +33 очень
душно
1012.9 1011.6 +29.1
21 14.06 штиль 0 15 км ясно +22.6 +19.6 83 +29 +29 очень
душно
1014.8 1013.5
00 15.06 ЮЗ 8 15 км ясно +21.5 +17.2 77 +26 +26 душно 1015.2 1013.8
03 15.06 ЮЗ 7 15 км ясно +20.6 +16.4 77 +23 +23 комфорт 1015.1 1013.8
06 15.06 ЮЗ 6 20 км 3/0
[Ci sp]
+22.7 +17.1 71 +28 +29 душно 1016.3 1015.0 +20.5
09 15.06 СЗ 3 20 км 3/0
[Ci sp]
+27.3 +14.8 46 +30 +43 душно 1016.7 1015.3
12 15.06 В 6 20 км ясно +28.2 +18.4 55 +33 +42 очень
душно
1015.9 1014.5
15 15.06 В 5 25 км ясно +26.9 +16.0 51 +30 +35 душно 1015.9 1014.6
18 15.06 СВ 4 25 км ясно +24.5 +18.0 67 +29 +29 душно 1015.6 1014.3 +29.8
21 15.06 20 км ясно +19.3 +16.8 85 1016.9 1015.5
00 16.06 СЗ 1 20 км ясно +17.9 +15.6 86 +19 +19 1016.9 1015.6
03 16.06 ЮЗ 6 н/о н/о +19.0 +15.5 80 +20 +20 1016.3 1014.9
06 16.06 ЮЗ 8 20 км ясно +20.8 +15.9 74 +24 +24 комфорт 1016.8 1015.4 +16.7

 

Местоположение метеостанции Ольвия (Италия): широта 40.90 долгота 9.52 высота над уровнем моря 13 м.

В архиве по умолчанию представлена погода в Ольвии за последнюю неделю. Архивные данные за месяц целиком и за предыдущие месяцы, начиная с января 2011 года, Вы можете получить, выбрав интересующий диапазон дат из раскрывающегося списка и нажав кнопку "Ввод!".


*Определитесь, кто Вы:
робот инопланетянин человек

Внимание! Время в таблицах - всемирное. Для получения местного времени необходимо прибавить поправку, которая равна 1 ч.

Смотрите также архив погоды в соседних городах и на ближайших метеорологических станциях:

Погода на Мысе Пертюзато (Франция) (60 км)
Погода в Фигари (Франция) (75 км)
Погода в Альгеро (Италия) (109 км)
Погода на Капо Беллависто (Италия) (109 км)
Погода в Соленцаре (Франция) (114 км)
Погода на Капо Кацция (Италия) (120 км)
Погода в Аяччо (Франция) (128 км)
Погода в Ла Парате (Франция) (136 км)
Погода в Алистро (Франция) (152 км)
Погода на Капо Фраска (Италия) (156 км)

Пояснения к столбцам:

Ветер - указаны скорость ветра в м/с - средняя за 10 мин, порывы в срок и между сроками (в фигурных скобках) и направление, откуда дует ветер: С - северный, СВ - северо-восточный, В - восточный, ЮВ - юго-восточный, Ю - южный, ЮЗ - юго-западный, З - западный, СЗ - северо-западный.
Видимость - горизонтальная дальность видимости в метрах или километрах. При видимости от 1 до 10 км при отсутствии осадков обычно наблюдается дымка, при ухудшении видимости до 1 км и менее - туман. В сухую погоду видимость может ухудшаться дымом, пылью или мглою.
Явления - указаны атмосферные явления, наблюдавшиеся в срок или в последний час перед сроком; фигурными скобками обозначены явления, наблюдавшиеся между сроками (за 1-3 часа до срока); квадратными скобками обозначены град или гололедные отложения с указанием их диаметра в мм.
Облачность - указаны через наклонную черту общая и нижняя облачность в баллах и высота нижней границы облаков в метрах; квадратными скобками обозначены формы облаков: Ci - перистые, Cs - перисто-слоистые, Cc - перисто-кучевые, Ac - высококучевые, As - высокослоистые, Sc - слоисто-кучевые, Ns - слоисто-дождевые, Cu - кучевые, Cb - кучево-дождевые. Подробнее классификацию облаков см. в Атласе облаков (PDF).
T - Температура воздуха - температура, измеренная на высоте 2 м над землей.
Td - Температура точки росы - температура, при понижении до которой содержащийся в воздухе водяной пар достигнет насыщения.
f - Относительная влажность воздуха - влажноcть воздуха, измеренная на высоте 2 м над землей.
Te - Эффективная температура - температура, которую ощущает одетый по сезону человек в тени. Характеристика душности погоды. При расчете учитывается влияние влажности воздуха и скорости ветра на теплоощущения человека.
Tes - Эффективная температура на солнце - температура, которую ощущает человек, с поправкой на солнечный нагрев. Характеристика знойности погоды. Зависит от высоты солнца над горизонтом, облачности и скорости ветра. Ночью, в пасмурную погоду, а также при ветре 12 м/с и более поправка равна нулю.
P - Атмосферное давление - приведенное к уровню моря атмосферное давление.
Po - Атмосферное давление - измеренное на уровне метеостанции атмосферное давление.
Tmin - Минимальная температура - минимум температуры воздуха на высоте 2 м над землей.
Tmax - Максимальная температура - максимум температуры воздуха на высоте 2 м над землей.
R - Количество осадков - Количество выпавших осадков за период времени, мм. При наведении курсора мыши на число - период времени, за который выпало указанное количество осадков.
R24 - Количество осадков - Количество выпавших осадков за 24 часа, мм.
S - Снежный покров - Высота снежного покрова, см. При наведении курсора мыши на число - состояние снежного покрова и степень покрытия местности в баллах.